{"data":{"norad_id":62274,"epoch":"2026-05-24T21:13:45.257376Z","epoch_age_seconds":85166,"freshness":"FRESH","line1":"1 62274U 24237H   26144.88455159  .00159450  00000+0  12166-2 0  9992","line2":"2 62274  43.0003 317.5214 0002913 265.8918  94.1617 15.70951556 84981","mean_motion":15.70951556,"eccentricity":0.0002913,"inclination_deg":43.0003,"raan_deg":317.5214,"arg_perigee_deg":265.8918,"mean_anomaly_deg":94.1617,"bstar":0.0012166,"rev_number":8498,"period_min":91.664188784189,"perigee_km":354.21452706631,"apogee_km":358.13793795557,"semimajor_km":6734.3132325109,"source":"CELESTRAK","updated_at":"2026-05-25T13:38:19.643256Z"}}